Zurück zum Katalog

STARLINK-3619

AktivKommunikationVLEO
NORAD 51787·PAYLOAD·🇺🇸 United States

Gestartet Feb 25, 2022 von Vandenberg Space Force Base

Loading…

Nächste Überflüge (nächste 24 Stunden)

TLE

AktuellSource: CelesTrak SupGP

Epoche: Sep 15, 2026, 01:08 UTC

1 51787C 22017V   26258.04770833 -.00029617  00000+0 -87502-3 0  2584
2 51787  53.1586 202.8621 0001412  84.8843 322.7064 15.34406058    13

Verfolge STARLINK-3619 in Echtzeit mit AllMySat

Download on the App Store